Overview Statistics Trail Chart Weather Telemetry Raw packets
 

This is the latest recevied weather packets stored in our database for station/object IZ2PAG-10. If no packets are shown the sender has not sent any weather packets the latest 10 day(s).

<< 19 20 21 22 23 24 25 >>
Time Temp. Humidity Pressure Rain* Wind** Luminosity Snow
1787845091 27.22° C 35% 1018.9 hPa - - - -
1787843291 27.22° C 35% 1018.9 hPa - - - -
1787841491 27.22° C 37% 1018.7 hPa - - - -
1787839691 27.22° C 36% 1018.8 hPa - - - -
1787837937 27.22° C 34% 1019 hPa - - - -
1787837891 27.22° C 34% 1019 hPa - - - -
1787836243 27.22° C 34% 1018.9 hPa - - - -
1787836090 27.22° C 34% 1018.9 hPa - - - -
1787834552 27.22° C 36% 1019 hPa - - - -
1787834289 27.22° C 36% 1019 hPa - - - -
1787832525 27.22° C 36% 1019 hPa - - - -
1787832489 27.22° C 36% 1019 hPa - - - -
1787830689 27.78° C 34% 1019.1 hPa - - - -
1787828889 27.22° C 34% 1019 hPa - - - -
1787827088 27.22° C 36% 1019 hPa - - - -
1787825325 27.22° C 35% 1018.9 hPa - - - -
1787825288 27.22° C 35% 1018.9 hPa - - - -
1787823488 27.22° C 34% 1019.3 hPa - - - -
1787821688 27.22° C 34% 1019.5 hPa - - - -
1787819888 27.22° C 37% 1019.5 hPa - - - -
1787818088 27.22° C 35% 1019.6 hPa - - - -
1787816288 27.22° C 35% 1019.5 hPa - - - -
1787814488 26.67° C 37% 1019.2 hPa - - - -
1787812687 26.67° C 35% 1019.2 hPa - - - -
1787810887 26.67° C 36% 1019.4 hPa - - - -

* Rain since midnight (hover to see other rain measurements)
** Current wind speed in m/s (hover to see current wind gust speed)